BLOCK DM-SL R/B, 28138

Orbit data source: Space-Track

BLOCK DM-SL R/B, 28138 is space debris in HEO originally from a launch on Sun, 11 Jan 2004 UTC launched from the Sea Launch (SEAL). Debris objects in space refer to the collection of defunct objects orbiting the Earth. Examples of debris include non-operational satellites, rocket bodies, and fragments generated from explosions, collisions, or faulty payload assembly.

Loading next visibility...
BLOCK DM-SL R/B details
Identifier
28138, 2004-001B
Orbit
HEO
Last TLE update1 day ago
Origin
Flag of USSeaLaunch (US / SEAL)
ManufacturerRKKE
MissionSpacecraft
Bus & MotorBLOK DM2, 11D58M
Mass~3,210 kg wet, 3,210 kg dry
Launch date (UTC)
2004-01-11 (21 years ago)
Launch vehicleUnknown
Launch site
Sea Launch (SEAL)
Object type
Payload
Rocket body
Debris
Shape & HBRCyl, 6.3 m
Radar Cross Section23.684 m², Large (>1 m²)

Expand to show TLE details & history

TLE from 1 day ago
0 BLOCK DM-SL R/B
1 28138U 04001B   24360.18206296 -.00000037  00000-0 -36408-3 0  9992
2 28138   0.0451 260.3201 7135120 255.8366 267.8612  2.24728909172096
Epoch: 2024-12-25T04:22Z
Definitive object data (Epoch: 2024-12-25T04:22:10.239Z)
Latitude0.04854°
Longitude-159.7224°
Altitude28,391.142 km
Speed2.596 km/s
True Right ascension23h 59m 59s
True Declination0° 02' 55"
Sunlit
Object was in daylight at TLE epoch
Visualization TLE readout
Latitude0.03893°
Longitude-176.14284°
Altitude35,017.875 km
Speed1.752 km/s
Apparent Right ascension22h 48m 40s
Apparent Declination-5° 00' 13"
Sunlit
Object is in daylight
Visualization observer readout
Local Sidereal Time10:00:42
Azimuth339.658° N
Elevation-53.451°
Doppler factor1
Orbital elements
Apogee altitude35,818.228 km
Perigee altitude676.819 km
Semi-major axis24,625.661 km
Eccentricity0.713512
Inclination0.0451°
RAAN260.3201°
Arg. of periapsis255.8366°
True anomaly203.81245°
Mean anomaly267.8612°
Eccentric anomaly234.55598°
Mean motion0.56164 °/min
BSTAR-0.00036408
Orbital period640.98 mins
Loading maneuver chart data...
Loading historical data...
Loading historical data...
Loading historical data...
Loading historical data...
Loading historical data...
Loading historical data...
Loading historical data...
Other satellites on launch #1 in the year 2004 (2004-01-11 UTC)

BLOCK DM-SL R/B Visibility forecast

Observer location: undefined°, undefined

Span
Click to sort rows by Start time (UTC) header in descending order
Start Az.
Max El. time (UTC)
Max El. Az.
Max El.
End time (UTC)
End Az.
580 mins2024-12-26 15:27:29.113Z170.483° S2024-12-26 23:04:29.113Z145.755° SSE30.588°2024-12-27 01:07:29.113Z125.452° SE
|